Location: Unspecified
(38.9119°N, 0.0000°E)
Time: 17:08:16
(UTC+00:00)

ISS - Visible Passes

Search period start: 24 May 2019 00:00
Search period end: 03 June 2019 00:00
Orbit: 408 x 418 km, 51.6° (Epoch: 25 May)

Date Brightness Start Highest point End Pass type
(mag) Time Alt. Az. Time Alt. Az. Time Alt. Az.
24 May -0.5 20:39:00 10° NNW 20:40:13 11° NNW 20:41:26 10° N visible
24 May -0.4 22:17:31 10° N 22:18:07 10° N 22:18:45 10° NNE visible
24 May -0.4 23:52:49 10° NNW 23:53:08 12° NNW 23:53:08 12° NNW visible
25 May -0.7 19:48:33 10° NW 19:50:26 14° NNW 19:52:19 10° NNE visible
25 May -0.8 23:03:35 10° NNW 23:05:08 17° N 23:05:08 17° N visible
26 May -0.9 22:14:24 10° NNW 22:16:18 14° NNE 22:17:10 13° NE visible
27 May -0.5 19:48:02 10° NNW 19:48:35 10° N 19:49:09 10° N visible
27 May -0.7 21:25:17 10° N 21:26:31 11° NNE 21:27:43 10° NE visible
27 May -1.0 23:00:49 10° NW 23:02:00 19° NNW 23:02:00 19° NNW visible
28 May -1.6 22:11:31 10° NNW 22:14:05 23° NNE 22:14:05 23° NNE visible
29 May -1.3 21:22:16 10° NNW 21:24:33 17° NNE 21:26:10 13° NE visible
29 May -0.9 22:58:15 10° NW 22:58:59 16° NW 22:58:59 16° NW visible
30 May -1.0 20:33:04 10° NNW 20:34:45 13° NNE 20:36:28 10° NE visible
30 May -2.3 22:08:46 10° NW 22:11:06 36° NNW 22:11:06 36° NNW visible
31 May -2.3 21:19:23 10° NW 21:22:24 31° NNE 21:23:14 27° ENE visible
01 Jun -1.7 20:30:03 10° NNW 20:32:40 21° NNE 20:35:19 10° ENE visible
01 Jun -2.1 22:06:16 10° WNW 22:08:13 31° WNW 22:08:13 31° WNW visible
02 Jun -3.8 21:16:39 10° NW 21:20:00 77° NE 21:20:25 64° E visible
